Total_Precipitation_Accumulation
0.74 0.81 0.89 0.94 1.00 1.06 1.11 1.11 1.08 1.03 1.02 1.04 1.05 1.04 1.05 1.10 1.20 1.25 1.21 1.40 1.54 1.57 1.40 1.32 1.27 1.25 1.24 1.11 1.12 1.19 1.25 1.41 1.45 1.21 1.12 1.21 1.29 1.25 1.26 1.22 1.15 1.16 1.09
0.65 0.80 0.84 0.93 0.99 1.00 1.03 1.19 1.20 1.17 1.15 1.16 1.17 1.20 1.16 1.14 1.21 1.18 1.11 1.19 1.38 1.59 1.77 1.82 1.63 1.51 1.47 1.34 1.33 1.29 1.29 1.38 1.43 1.40 1.33 1.36 1.36 1.35 1.34 1.17 0.99 0.95 1.00
0.55 0.69 0.80 0.88 0.98 1.08 1.19 1.31 1.42 1.39 1.37 1.39 1.42 1.38 1.36 1.37 1.33 1.27 1.25 1.29 1.38 1.44 1.64 1.83 1.83 1.86 1.68 1.59 1.51 1.44 1.39 1.34 1.42 1.41 1.35 1.47 1.52 1.51 1.37 1.08 0.96 0.99 0.92
0.68 0.81 0.87 1.03 1.18 1.27 1.30 1.42 1.48 1.51 1.55 1.58 1.62 1.57 1.54 1.55 1.52 1.47 1.43 1.42 1.44 1.44 1.47 1.54 1.65 1.87 1.83 1.77 1.67 1.62 1.60 1.59 1.61 1.56 1.52 1.61 1.80 1.84 1.60 1.26 1.11 1.08 1.02
0.96 1.03 1.05 1.15 1.28 1.45 1.63 1.69 1.72 1.75 1.75 1.85 1.83 1.72 1.68 1.69 1.56 1.60 1.71 1.71 1.74 1.60 1.50 1.44 1.44 1.61 1.69 1.70 1.56 1.57 1.67 1.71 1.72 1.70 1.69 1.77 1.86 1.96 1.69 1.41 1.23 1.15 1.09
1.38 1.47 1.56 1.65 1.74 1.84 1.90 1.92 2.00 2.02 1.99 1.91 1.84 1.82 1.79 1.65 1.75 1.76 1.67 1.69 1.85 1.86 1.75 1.66 1.54 1.45 1.45 1.49 1.56 1.59 1.62 1.62 1.66 1.69 1.67 1.71 1.78 1.83 1.89 1.69 1.44 1.22 1.10
1.49 1.55 1.66 1.76 1.84 1.90 1.98 2.02 1.97 1.95 1.89 1.80 1.82 1.86 1.82 1.85 1.79 1.59 1.46 1.46 1.53 1.64 1.70 1.68 1.49 1.35 1.40 1.37 1.53 1.58 1.51 1.45 1.41 1.46 1.51 1.57 1.86 2.05 2.20 1.93 1.67 1.47 1.26
1.47 1.50 1.51 1.56 1.63 1.75 1.84 1.82 1.75 1.72 1.68 1.63 1.63 1.56 1.52 1.50 1.51 1.34 1.30 1.26 1.26 1.24 1.34 1.44 1.41 1.32 1.31 1.33 1.27 1.18 1.13 1.15 1.14 1.08 1.14 1.34 1.63 2.05 2.26 2.24 2.15 1.91 1.67
1.27 1.32 1.32 1.41 1.50 1.58 1.60 1.60 1.62 1.59 1.45 1.34 1.28 1.28 1.27 1.33 1.45 1.28 1.21 1.18 1.22 1.14 1.13 1.14 1.14 1.07 1.11 1.08 1.00 0.91 0.86 0.88 0.91 0.94 0.96 1.12 1.34 1.62 1.96 2.11 2.03 1.81 1.54
1.32 1.40 1.44 1.48 1.54 1.53 1.53 1.53 1.49 1.44 1.38 1.35 1.27 1.22 1.22 1.23 1.35 1.19 1.11 1.11 1.16 1.12 1.12 1.16 1.25 1.10 0.97 0.82 0.80 0.83 0.75 0.73 0.78 0.79 0.80 0.85 0.96 1.16 1.54 1.67 1.65 1.62 1.44
1.30 1.38 1.39 1.40 1.41 1.43 1.48 1.41 1.42 1.42 1.38 1.29 1.22 1.20 1.23 1.22 1.23 1.07 0.96 0.90 0.94 0.94 0.90 0.91 1.02 1.02 0.83 0.69 0.70 0.71 0.66 0.64 0.67 0.66 0.65 0.69 0.80 0.94 1.11 1.37 1.46 1.38 1.27
1.36 1.41 1.36 1.34 1.33 1.32 1.30 1.25 1.25 1.25 1.21 1.18 1.17 1.19 1.26 1.25 1.10 0.96 0.82 0.75 0.77 0.78 0.86 0.90 0.99 1.01 0.81 0.69 0.60 0.58 0.54 0.49 0.53 0.60 0.59 0.60 0.68 0.80 0.98 1.20 1.39 1.39 1.27
1.42 1.47 1.46 1.41 1.36 1.35 1.36 1.36 1.31 1.29 1.27 1.21 1.14 1.06 1.04 1.07 1.07 0.90 0.71 0.64 0.67 0.71 0.92 1.13 1.15 1.09 0.93 0.77 0.70 0.68 0.56 0.48 0.52 0.58 0.59 0.58 0.61 0.72 0.96 1.22 1.42 1.53 1.44
1.45 1.44 1.44 1.42 1.39 1.37 1.40 1.39 1.36 1.32 1.26 1.18 1.10 1.04 1.04 1.05 1.02 0.95 0.84 0.74 0.75 0.79 0.95 1.14 1.24 1.26 1.16 1.01 0.91 0.83 0.66 0.62 0.66 0.67 0.68 0.72 0.78 0.89 1.05 1.15 1.30 1.44 1.48
1.39 1.37 1.33 1.28 1.27 1.28 1.28 1.27 1.21 1.16 1.12 1.06 0.99 0.96 0.96 0.96 0.97 0.93 0.84 0.76 0.73 0.77 0.89 1.11 1.29 1.42 1.43 1.38 1.24 1.12 0.99 0.88 0.80 0.81 0.85 0.86 0.87 0.94 1.02 1.15 1.29 1.34 1.31
1.36 1.27 1.21 1.11 1.09 1.08 1.08 1.11 1.17 1.04 1.02 0.95 0.90 0.83 0.77 0.81 0.81 0.71 0.65 0.63 0.64 0.69 0.80 1.02 1.27 1.46 1.53 1.61 1.59 1.47 1.28 1.11 1.03 1.00 0.98 0.97 0.97 0.96 1.00 1.13 1.28 1.34 1.24
1.25 1.15 1.07 1.03 1.02 0.99 0.95 0.95 1.02 1.01 0.92 0.85 0.88 0.81 0.69 0.69 0.64 0.61 0.58 0.56 0.55 0.58 0.72 0.88 1.00 1.15 1.32 1.51 1.58 1.56 1.40 1.26 1.26 1.23 1.14 1.09 1.11 1.09 1.08 1.16 1.29 1.37 1.35
1.08 1.09 1.00 0.94 0.95 0.94 0.91 0.92 0.94 0.98 0.99 0.92 0.87 0.84 0.65 0.56 0.51 0.49 0.48 0.46 0.43 0.46 0.59 0.70 0.78 0.90 1.08 1.33 1.49 1.55 1.50 1.38 1.37 1.39 1.35 1.28 1.26 1.21 1.14 1.11 1.21 1.31 1.34
1.00 0.96 0.90 0.91 0.93 0.93 0.92 0.90 0.90 0.92 0.95 0.91 0.83 0.83 0.72 0.57 0.49 0.47 0.53 0.54 0.53 0.53 0.62 0.67 0.71 0.82 0.97 1.18 1.39 1.54 1.56 1.49 1.42 1.47 1.46 1.37 1.32 1.28 1.17 1.09 1.14 1.27 1.34
0.89 1.00 0.89 0.85 0.86 0.88 0.92 0.95 0.92 0.94 0.96 0.95 0.88 0.84 0.80 0.69 0.62 0.67 0.74 0.79 0.74 0.72 0.74 0.73 0.78 0.86 1.00 1.23 1.42 1.51 1.54 1.50 1.45 1.48 1.46 1.37 1.31 1.28 1.18 1.13 1.14 1.20 1.22
0.80 0.81 0.84 0.74 0.72 0.75 0.79 0.84 0.85 0.88 0.91 0.90 0.84 0.78 0.71 0.68 0.76 0.86 0.95 0.95 0.87 0.82 0.79 0.77 0.78 0.84 1.01 1.21 1.35 1.47 1.51 1.51 1.49 1.45 1.41 1.34 1.29 1.28 1.26 1.23 1.18 1.19 1.24
0.73 0.68 0.68 0.69 0.72 0.72 0.70 0.76 0.78 0.78 0.79 0.82 0.84 0.81 0.78 0.73 0.83 0.91 0.97 1.01 0.99 0.94 0.88 0.84 0.81 0.86 0.94 1.07 1.22 1.35 1.38 1.39 1.40 1.41 1.38 1.33 1.29 1.28 1.31 1.31 1.28 1.27 1.29
0.69 0.68 0.68 0.70 0.74 0.77 0.77 0.77 0.76 0.76 0.79 0.83 0.82 0.83 0.87 0.90 0.93 1.00 1.05 1.05 0.99 0.95 0.89 0.84 0.84 0.86 0.90 0.96 1.06 1.17 1.23 1.26 1.28 1.30 1.35 1.33 1.29 1.27 1.28 1.29 1.27 1.27 1.25
0.64 0.65 0.64 0.67 0.71 0.74 0.75 0.77 0.75 0.72 0.75 0.80 0.85 0.92 0.96 0.99 1.02 1.05 1.03 1.00 0.94 0.89 0.90 0.88 0.88 0.87 0.91 0.97 1.01 1.00 1.02 1.04 1.05 1.08 1.14 1.19 1.20 1.19 1.22 1.21 1.24 1.27 1.31
0.56 0.64 0.66 0.66 0.64 0.65 0.67 0.69 0.71 0.72 0.76 0.84 0.90 0.93 0.96 0.99 1.01 0.97 0.91 0.87 0.82 0.82 0.84 0.84 0.83 0.77 0.75 0.77 0.79 0.80 0.89 0.89 0.88 0.91 0.94 0.98 1.01 1.06 1.12 1.15 1.21 1.30 1.39
0.48 0.58 0.63 0.64 0.62 0.61 0.65 0.68 0.69 0.75 0.80 0.81 0.85 0.87 0.86 0.88 0.93 0.91 0.88 0.86 0.83 0.79 0.79 0.78 0.75 0.68 0.67 0.67 0.64 0.63 0.62 0.59 0.64 0.73 0.77 0.82 0.89 1.00 1.07 1.10 1.15 1.25 1.33